This is the latest recevied weather packets stored in our database for station/object WL7CLI. If no packets are shown the sender has not sent any weather packets the latest 10 day(s).
| Time | Temp. | Humidity | Pressure | Rain* | Wind** | Luminosity | Snow |
|---|---|---|---|---|---|---|---|
| 1778014704 | 15.56° C | 32% | 1009.8 hPa | 0 mm | - | - | - |
| 1778014699 | 15.56° C | 32% | 1010 hPa | 0 mm | - | - | - |
| 1778014575 | 15.56° C | 32% | 1010.1 hPa | 0 mm | - | - | - |
| 1778013500 | 15.56° C | 33% | 1010.3 hPa | 0 mm | - | - | - |
| 1778013376 | 15.56° C | 33% | 1010.3 hPa | 0 mm | - | - | - |
| 1778012904 | 15.56° C | 33% | 1010.2 hPa | 0 mm | - | - | - |
| 1778012299 | 15.56° C | 34% | 1010.4 hPa | 0 mm | - | - | - |
| 1778012175 | 15.56° C | 33% | 1010.4 hPa | 0 mm | - | - | - |
| 1778011104 | 16.11° C | 32% | 1010.4 hPa | 0 mm | - | - | - |
| 1778011099 | 16.11° C | 32% | 1010.6 hPa | 0 mm | - | - | - |
| 1778010975 | 16.11° C | 36% | 1010.6 hPa | 0 mm | - | - | - |
| 1778009898 | 16.11° C | 34% | 1010.7 hPa | 0 mm | - | - | - |
| 1778009774 | 16.11° C | 36% | 1010.6 hPa | 0 mm | - | - | - |
| 1778009304 | 16.11° C | 35% | 1010.8 hPa | 0 mm | - | - | - |
| 1778008700 | 15.56° C | 37% | 1010.9 hPa | 0 mm | - | - | - |
| 1778008576 | 15.56° C | 37% | 1010.9 hPa | 0 mm | - | - | - |
| 1778007504 | 15.56° C | 36% | 1010.9 hPa | 0 mm | - | - | - |
| 1778007499 | 15.56° C | 36% | 1011 hPa | 0 mm | - | - | - |
| 1778007374 | 15.56° C | 38% | 1011 hPa | 0 mm | - | - | - |
| 1778006300 | 15° C | 38% | 1011.1 hPa | 0 mm | - | - | - |
| 1778006176 | 15° C | 39% | 1011.2 hPa | 0 mm | - | - | - |
| 1778005705 | 15° C | 39% | 1011.3 hPa | 0 mm | - | - | - |
| 1778005100 | 14.44° C | 38% | 1011.3 hPa | 0 mm | - | - | - |
| 1778004975 | 14.44° C | 37% | 1011.2 hPa | 0 mm | - | - | - |
| 1778003904 | 14.44° C | 40% | 1011.2 hPa | 0 mm | - | - | - |
* Rain latest hour (hover to see other rain measurements)
** Current wind speed in m/s (hover to see current wind gust speed)